This is the latest recevied weather packets stored in our database for station/object KI5NXU. If no packets are shown the sender has not sent any weather packets the latest 10 day(s).
| Time | Temp. | Humidity | Pressure | Rain* | Wind** | Luminosity | Snow |
|---|---|---|---|---|---|---|---|
| 1788115657 | 37.22° C | 34% | 1014.6 hPa | 0 mm | - | 186 W/m² | - |
| 1788115356 | 37.22° C | 34% | 1014.8 hPa | 0 mm | - | 784 W/m² | - |
| 1788115052 | 37.78° C | 33% | 1014.8 hPa | 0 mm | - | 764 W/m² | - |
| 1788114747 | 37.22° C | 36% | 1014.7 hPa | 0 mm | - | 167 W/m² | - |
| 1788114442 | 37.22° C | 34% | 1015 hPa | 0 mm | - | 755 W/m² | - |
| 1788114138 | 36.67° C | 35% | 1015 hPa | 0 mm | - | 734 W/m² | - |
| 1788113834 | 36.67° C | 35% | 1015 hPa | 0 mm | - | 373 W/m² | - |
| 1788113535 | 36.11° C | 37% | 1015.2 hPa | 0 mm | - | 745 W/m² | - |
| 1788113233 | 36.67° C | 36% | 1015.3 hPa | 0 mm | - | 335 W/m² | - |
| 1788112928 | 37.22° C | 36% | 1015.3 hPa | 0 mm | - | 803 W/m² | - |
| 1788112628 | 37.78° C | 39% | 1015.4 hPa | 0 mm | - | 775 W/m² | - |
| 1788112333 | 37.78° C | 36% | 1015.4 hPa | 0 mm | - | 796 W/m² | - |
| 1788112018 | 37.78° C | 37% | 1015.6 hPa | 0 mm | - | 779 W/m² | - |
| 1788111713 | 36.67° C | 40% | 1015.6 hPa | 0 mm | - | 777 W/m² | - |
| 1788111408 | 37.22° C | 38% | 1015.9 hPa | 0 mm | - | 774 W/m² | - |
| 1788111103 | 37.22° C | 39% | 1015.8 hPa | 0 mm | - | 779 W/m² | - |
| 1788110799 | 36.11° C | 39% | 1015.8 hPa | 0 mm | - | 786 W/m² | - |
| 1788110496 | 36.11° C | 39% | 1016.1 hPa | 0 mm | - | 783 W/m² | - |
| 1788110197 | 36.67° C | 39% | 1016 hPa | 0 mm | - | 787 W/m² | - |
| 1788109897 | 36.67° C | 38% | 1016.2 hPa | 0 mm | - | 765 W/m² | - |
| 1788109591 | 36.11° C | 39% | 1016.2 hPa | 0 mm | - | 737 W/m² | - |
| 1788109290 | 36.11° C | 40% | 1016.1 hPa | 0 mm | - | 764 W/m² | - |
| 1788108985 | 36.67° C | 40% | 1016.1 hPa | 0 mm | - | 789 W/m² | - |
| 1788108681 | 36.11° C | 42% | 1016.4 hPa | 0 mm | - | 776 W/m² | - |
| 1788108377 | 35.56° C | 44% | 1016.3 hPa | 0 mm | - | 783 W/m² | - |
* Rain latest hour (hover to see other rain measurements)
** Current wind speed in m/s (hover to see current wind gust speed)